Theta_e
352 354 356 355 356 356 356 356 353 353 354 352 354 356 357 357 355 354 355 349 344 342 345 346 346 347 345 344 344 344 344 345 344 344 343 342 341 339 340 339 340 338 338
356 355 353 352 355 355 356 357 356 356 357 354 354 356 357 349 354 352 346 344 340 341 343 343 344 345 345 345 346 345 344 344 344 344 343 343 343 342 340 339 339 340 340
355 353 354 354 357 354 355 357 357 357 345 353 356 355 356 354 350 346 350 346 341 342 342 343 344 344 345 348 349 347 346 347 346 346 345 344 343 342 342 340 340 339 339
352 356 357 358 356 355 355 358 356 356 351 349 351 350 348 350 353 354 352 346 343 345 344 345 344 344 343 342 342 344 344 344 343 344 345 345 344 343 342 342 341 340 340
352 356 354 356 356 355 354 356 351 353 354 354 356 353 349 351 349 351 353 351 345 347 347 347 346 346 344 342 339 343 343 341 339 338 338 339 341 343 343 343 342 341 341
356 356 356 357 358 357 357 355 352 350 351 355 354 352 337 341 350 343 349 350 354 352 353 350 348 347 347 345 340 340 341 340 338 337 336 336 337 336 336 336 339 342 342
357 356 355 357 356 355 353 354 344 350 354 355 349 346 344 344 349 345 335 342 352 355 354 353 351 350 349 348 342 339 338 339 339 338 339 339 338 336 335 335 335 335 337
356 359 354 354 355 355 348 347 351 353 357 355 352 347 348 345 342 342 341 341 351 353 354 353 353 353 352 352 348 341 338 336 339 340 340 341 338 333 330 329 330 331 335
354 355 353 357 356 354 354 338 347 349 356 355 354 351 349 347 338 339 339 340 340 343 352 354 354 354 354 353 353 347 343 337 336 338 340 342 337 331 329 329 329 331 333
350 349 353 357 356 356 356 348 350 338 356 357 355 354 354 345 338 341 338 340 345 345 351 356 356 355 356 354 353 352 350 344 339 336 342 338 333 330 328 328 329 331 333
351 351 351 353 362 358 356 355 354 354 356 356 357 354 352 339 344 346 345 346 342 348 347 357 356 356 356 355 354 352 352 349 346 339 337 335 333 329 327 329 331 331 332
348 352 352 356 360 359 356 356 351 342 350 351 349 352 356 354 351 347 350 348 349 347 354 355 354 355 355 355 355 354 354 352 349 343 338 335 334 331 327 328 331 333 332
347 351 352 354 357 359 355 356 352 350 352 356 355 351 353 354 347 336 350 350 351 351 348 350 351 350 346 348 353 356 355 355 352 348 341 338 335 332 327 326 328 330 330
347 352 353 354 352 357 355 355 349 353 355 355 357 357 355 353 351 348 347 343 347 352 350 348 344 339 341 342 347 353 353 353 351 348 344 341 337 333 328 325 325 326 326
348 352 356 358 354 346 353 350 342 357 356 357 357 356 356 354 353 347 343 341 345 349 348 342 341 341 337 335 336 335 339 352 350 349 346 344 341 336 331 326 325 324 324
351 351 356 354 352 344 348 355 357 337 351 356 357 353 356 355 353 353 341 343 341 343 349 346 347 344 343 337 341 341 337 340 351 350 348 347 346 343 338 331 325 324 324
354 353 354 354 350 349 348 353 355 354 356 354 355 353 354 353 350 350 350 337 348 351 347 349 350 348 344 342 349 347 353 351 351 352 352 351 350 348 345 341 332 326 324
355 354 354 357 355 346 348 353 355 354 355 354 355 354 354 347 341 353 352 351 351 349 349 346 352 351 350 351 354 350 354 353 354 354 354 352 352 351 349 347 341 334 328
354 354 356 357 356 355 354 354 354 353 352 351 352 353 352 352 352 352 351 350 349 347 344 348 347 345 341 339 344 350 349 353 354 353 354 354 354 352 350 348 346 343 340
343 351 352 352 352 352 351 350 350 350 348 347 347 349 346 347 348 349 349 342 339 341 343 339 337 335 333 332 341 345 347 349 350 350 350 350 349 352 350 349 348 346 344
342 346 345 344 343 344 343 340 337 341 338 338 339 341 340 339 337 335 335 335 333 334 334 334 335 336 335 336 337 336 334 335 335 339 347 347 350 351 350 344 345 346 347
342 337 338 340 341 340 338 339 333 325 326 331 333 335 336 336 336 335 332 332 335 334 334 333 336 338 337 337 338 339 342 343 337 334 339 341 342 343 342 340 341 344 345
338 342 342 342 341 339 338 333 327 323 323 331 334 334 334 333 334 335 336 335 332 330 331 332 333 333 335 335 337 341 340 345 346 344 344 344 342 340 337 332 336 339 338
340 342 339 339 338 336 335 329 323 324 325 326 327 326 323 325 330 329 329 330 330 327 325 324 325 326 329 334 331 332 333 336 337 336 335 337 336 337 332 334 336 337 336
338 337 336 335 336 335 335 330 322 322 326 327 328 326 326 328 328 327 326 325 324 324 324 323 321 320 320 320 320 322 324 327 334 336 334 335 335 334 333 338 340 340 341
334 332 334 333 333 333 331 330 326 321 322 325 325 324 325 323 323 322 321 320 320 321 321 322 323 323 323 322 325 326 326 328 331 334 333 335 336 339 337 338 334 333 333
Wind_Speed
11 9 8 8 10 10 11 13 12 9 7 13 17 21 19 15 11 16 20 19 15 11 10 10 11 10 12 11 11 12 13 15 16 17 18 19 20 20 19 17 16 17 17
10 9 9 11 13 13 11 13 11 8 10 11 17 24 13 5 7 18 15 16 12 8 8 8 9 9 9 10 10 11 12 12 14 16 17 18 19 21 20 20 19 18 16
14 10 9 13 12 12 13 13 11 8 8 7 12 13 19 8 5 22 20 17 14 10 8 8 9 9 8 9 10 11 11 11 11 12 14 16 17 19 20 20 20 20 18
13 11 11 12 13 14 14 10 10 13 15 13 8 16 16 9 7 13 21 18 15 13 11 10 10 9 8 9 10 11 11 11 10 10 11 13 15 16 17 19 20 20 20
12 14 9 13 14 14 9 6 7 12 11 11 5 10 10 14 6 4 2 12 17 14 12 11 10 9 8 7 8 10 10 9 9 9 9 10 11 12 13 16 18 19 20
14 13 12 11 15 12 8 9 6 11 8 5 1 9 10 4 8 4 6 6 15 20 15 14 13 11 9 6 7 9 10 10 9 9 9 9 9 8 9 9 11 15 20
18 12 9 13 11 13 9 9 7 6 9 8 12 12 5 2 7 8 21 22 12 18 21 19 16 14 13 8 8 9 11 12 12 11 10 10 9 8 9 9 10 10 12
16 14 10 10 10 14 12 7 7 6 7 2 4 6 2 3 8 19 15 22 24 16 17 26 18 14 16 13 11 11 11 11 12 12 11 10 9 8 9 10 11 12 12
16 15 15 13 15 10 10 12 11 7 5 3 5 6 2 4 2 6 21 15 23 25 23 27 21 16 16 17 13 14 12 11 12 12 12 12 10 8 8 8 8 9 10
20 17 17 16 18 12 12 16 15 10 5 9 7 6 8 8 3 2 10 18 17 25 15 27 27 21 23 17 14 15 14 14 11 11 12 13 11 9 8 8 8 8 9
21 21 17 22 18 15 13 15 12 9 11 10 10 5 8 9 9 4 3 4 14 21 19 22 29 28 24 19 15 15 16 14 13 12 14 13 12 10 8 9 9 9 9
19 24 21 19 21 18 13 14 14 13 14 14 15 12 7 4 2 6 2 3 4 10 17 4 8 3 2 13 16 13 15 16 15 13 14 13 12 10 9 9 9 9 8
22 22 24 24 21 20 15 17 16 14 16 16 14 18 14 5 4 24 12 2 3 8 4 4 11 9 9 7 11 20 17 18 18 15 14 14 13 11 11 10 11 10 10
18 14 18 22 23 19 18 19 16 13 14 16 17 15 16 8 9 30 13 8 1 2 18 6 8 10 16 13 6 15 18 19 20 18 15 15 15 13 13 12 12 11 12
17 12 12 18 22 16 15 14 12 11 14 21 18 14 11 7 1 1 7 5 7 1 1 6 9 17 19 17 12 10 20 21 23 19 17 15 15 15 14 14 14 14 12
25 14 15 17 25 19 25 11 18 20 9 21 14 11 10 5 8 4 6 8 5 11 5 9 11 17 22 23 15 22 27 24 20 20 20 16 15 16 15 17 17 16 14
25 19 17 17 22 16 20 14 14 14 15 14 10 8 10 4 6 8 9 6 4 16 1 3 7 15 18 22 18 19 17 20 24 23 18 19 18 17 15 19 20 20 17
28 19 15 15 18 14 11 10 8 8 10 8 7 5 7 5 3 6 6 10 7 2 3 1 1 9 13 13 15 12 15 18 19 19 18 18 19 20 18 20 22 23 21
17 12 12 7 7 7 7 4 1 3 3 0 1 2 2 2 2 2 2 2 2 1 6 5 3 6 10 13 15 16 13 17 22 21 21 22 22 23 22 23 23 22 23
20 15 15 9 8 8 8 6 6 6 6 9 9 6 6 4 3 1 4 4 3 1 0 4 7 12 13 12 9 7 10 11 16 17 20 22 21 22 23 27 26 25 24
5 7 13 14 12 16 16 13 12 7 5 6 6 5 6 6 6 3 4 5 4 2 0 1 3 6 13 13 12 10 13 13 13 12 15 21 25 25 22 22 25 28 29
6 3 5 8 4 2 6 8 1 3 5 6 7 5 5 7 8 3 2 2 1 3 2 3 5 8 12 14 16 17 16 14 5 8 11 13 9 14 14 17 18 18 22
5 7 9 7 7 5 6 6 3 4 6 5 6 6 4 5 5 5 2 2 4 6 7 5 6 9 15 18 18 20 19 19 19 19 17 26 23 25 24 26 25 21 17
5 9 9 9 6 7 8 8 7 5 7 6 6 9 8 8 5 4 11 9 5 7 11 13 12 13 11 11 15 17 18 20 25 28 24 20 27 28 25 24 26 27 25
8 7 6 7 8 7 7 9 6 6 8 9 8 8 8 8 7 6 7 11 13 13 15 16 13 15 21 24 24 24 27 18 14 24 28 16 25 25 28 18 9 12 18
7 6 6 7 4 5 5 6 10 10 8 8 5 11 7 8 12 11 12 14 19 22 22 20 19 20 22 21 17 17 19 18 17 11 28 13 16 7 3 7 6 10 16
Wind_Direction
233 244 247 248 262 262 269 282 268 247 247 254 263 245 249 257 251 234 213 205 197 195 208 208 212 221 220 216 214 223 232 236 238 236 235 237 241 240 240 239 233 229 234
242 228 253 259 270 269 270 275 242 239 212 245 255 244 245 210 214 182 184 191 187 183 187 188 192 202 206 217 221 219 223 228 234 236 236 237 236 236 236 235 235 235 237
216 231 269 262 281 269 292 251 226 251 250 262 244 263 222 166 159 235 239 201 187 173 180 186 188 195 200 217 219 223 223 224 228 236 237 235 235 233 235 235 236 236 234
214 227 250 269 272 274 280 270 253 243 267 296 303 45 43 140 100 249 240 209 191 179 182 191 193 198 205 204 213 212 209 205 205 210 217 223 225 228 233 236 236 235 232
209 221 229 260 269 274 273 267 233 233 244 339 41 22 20 48 98 351 169 251 225 194 192 196 192 193 210 208 198 198 199 199 194 191 197 206 212 216 224 232 233 234 232
208 230 235 263 281 256 253 261 257 259 284 26 232 132 225 53 354 44 191 355 241 228 203 203 198 195 206 207 204 196 197 196 190 181 176 180 188 196 206 215 222 228 228
210 203 244 242 233 241 269 278 262 281 294 160 118 73 163 190 123 244 236 266 239 218 229 205 205 203 208 207 208 205 200 197 193 189 188 195 202 215 228 235 234 232 229
205 210 252 246 226 266 234 243 247 257 278 4 126 120 169 148 183 185 214 230 210 218 239 234 209 215 213 212 216 207 210 206 203 202 205 214 223 234 242 239 242 240 237
209 225 243 251 265 266 256 237 250 233 290 326 180 148 113 219 183 227 211 215 222 236 250 246 214 223 227 219 215 215 213 213 212 213 213 222 231 239 239 241 240 241 234
231 240 233 239 250 244 246 227 253 230 258 257 257 196 191 184 156 323 257 239 226 251 262 233 218 228 219 216 219 223 225 215 215 220 219 230 238 246 237 233 227 219 224
231 230 238 231 234 239 240 226 260 242 237 255 260 210 188 179 193 122 238 284 244 240 242 229 224 220 218 220 223 232 233 233 225 220 220 228 235 242 242 238 236 221 214
226 231 234 236 240 232 228 226 235 246 253 259 266 272 263 272 50 254 218 241 256 325 297 110 164 123 250 239 239 239 242 241 234 232 230 231 233 238 242 235 234 231 222
225 234 238 241 246 225 223 223 237 254 245 259 269 279 279 307 98 299 300 337 219 194 300 131 111 87 15 355 287 252 244 243 236 238 239 239 238 237 242 242 236 232 229
234 247 271 234 240 237 234 228 234 247 266 270 264 265 266 286 195 204 219 150 253 158 196 180 174 243 255 284 299 238 250 251 233 236 236 239 238 235 241 245 243 236 234
241 257 263 208 200 236 269 255 229 239 262 265 269 276 253 243 171 158 266 198 103 316 271 200 184 204 180 206 251 241 260 247 232 240 237 238 240 241 239 243 245 242 239
240 230 225 214 222 262 250 237 235 268 274 275 269 277 255 192 133 98 62 30 356 279 269 165 202 206 218 210 225 248 258 246 238 246 245 241 242 246 246 246 244 244 242
246 226 229 239 231 226 222 251 265 270 259 278 278 276 254 169 145 134 130 110 334 268 325 61 156 192 199 218 244 249 260 238 239 241 246 254 251 248 249 251 248 245 241
243 229 233 235 231 228 224 242 256 286 293 294 278 251 233 213 159 150 148 144 161 338 5 162 192 207 234 279 274 281 251 236 238 251 253 251 251 249 249 251 252 251 249
309 199 177 163 220 239 228 181 118 294 317 70 105 156 116 62 98 146 144 108 95 335 320 309 277 294 306 322 284 262 258 245 248 254 262 262 261 258 258 256 251 253 256
329 53 76 92 114 112 96 90 107 80 67 88 81 92 72 68 93 158 158 133 127 143 41 359 343 327 328 334 351 314 294 272 266 262 262 262 265 266 263 259 256 255 258
30 24 54 64 68 76 64 57 32 60 316 3 33 54 12 352 320 285 246 232 226 197 99 17 311 313 317 317 328 318 307 303 295 291 275 272 265 258 256 256 258 258 254
178 157 88 35 356 91 126 87 64 2 10 18 25 23 40 72 38 53 178 191 149 323 310 322 300 290 290 298 308 312 311 302 294 261 285 289 295 270 265 276 280 288 258
166 123 95 131 177 91 60 74 56 14 13 4 17 3 2 1 28 16 325 301 320 308 316 337 312 291 294 290 297 295 295 293 283 290 296 293 286 284 286 287 280 273 267
131 115 121 137 120 80 49 45 39 44 28 12 353 345 330 316 339 353 328 306 297 317 310 309 305 310 298 276 284 284 285 282 280 283 287 268 277 281 284 288 275 274 283
123 111 108 90 71 92 68 50 47 49 49 32 24 353 319 310 313 328 324 324 318 314 310 305 307 296 290 285 281 279 275 276 280 283 288 268 278 275 281 277 268 285 293
108 91 82 69 63 78 66 51 30 36 32 14 8 6 16 55 20 3 339 323 310 316 314 321 324 316 311 305 294 291 283 258 250 286 279 250 275 223 261 228 280 304 302